Stations météo

réclame
Mon MeteoGroup
Konstanz, Allemagne (10929): Température de l'air & dewpoint: 09.11.2018 22:00:00 - 15.11.2018 22:00:00 (CET)Konstanz, Allemagne (10929): Température de l'air 5cm & Température de l'air -5cm: 09.11.2018 22:00:00 - 15.11.2018 22:00:00 (CET)Konstanz, Allemagne (10929): Température de l'air -20cm & Température de l'air -100cm: 09.11.2018 22:00:00 - 15.11.2018 22:00:00 (CET)Konstanz, Allemagne (10929): Vitesse du vent & gusts: 09.11.2018 22:00:00 - 15.11.2018 22:00:00 (CET)Konstanz, Allemagne (10929): Direction du vent: 09.11.2018 22:00:00 - 15.11.2018 22:00:00 (CET)Konstanz, Allemagne (10929): reduced air pressure: 09.11.2018 22:00:00 - 15.11.2018 22:00:00 (CET)Konstanz, Allemagne (10929): visibility: 09.11.2018 22:00:00 - 15.11.2018 22:00:00 (CET)Konstanz, Allemagne (10929): Ensoleillement: 09.11.2018 22:00:00 - 15.11.2018 22:00:00 (CET)Konstanz, Allemagne (10929): Quantités de précipitations: 09.11.2018 22:00:00 - 15.11.2018 22:00:00 (CET)
Date & Time tt [°C] td [°C] tt 5cm [°C] tt -5cm [°C] tt -20cm [°C] tt -100cm [°C] ff [km/h] ff [knt] fx [km/h] fx [knt] dd ppp [hPa] vv [km] sd [min] rr [mm]
15.11.2018 22:00:00 5,3 3,8 5,4 7,3 8,9 12,0 6 3 12 7 NNE 1027,8 18 0 0,0
15.11.2018 21:00:00 5,6 3,9 5,6 7,4 9,0 12,0 8 4 14 8 NNE 1027,8 19 0 0,0
15.11.2018 20:00:00 5,9 4,0 6,0 7,6 9,1 12,0 6 4 13 7 ENE 1027,8 22 0 0,0
15.11.2018 19:00:00 6,2 4,2 6,2 7,7 9,1 12,0 6 3 12 7 NE 1027,8 22 0 0,0
15.11.2018 18:00:00 6,4 4,2 6,4 7,9 9,2 12,0 4 2 9 5 E 1027,4 30 0 0,0
15.11.2018 17:00:00 6,4 4,1 6,5 8,1 9,2 12,0 2 1 9 5 NE 1027,4 35 0 0,0
15.11.2018 16:00:00 6,6 4,6 6,8 8,3 9,2 12,0 4 2 9 5 ENE 1027,3 39 0 0,0
15.11.2018 15:00:00 6,7 4,7 7,0 8,4 9,2 12,0 3 2 10 5 ENE 1027,3 35 0 0,0
15.11.2018 14:00:00 6,8 5,0 7,2 8,4 9,1 12,0 5 3 9 5 ENE 1027,2 29 0 0,0
15.11.2018 13:00:00 6,9 5,3 7,4 8,4 9,1 12,0 4 2 10 6 E 1027,6 29 0 0,0
15.11.2018 12:00:00 6,7 5,3 7,0 8,2 9,1 12,0 4 2 11 6 ESE 1027,8 18 0 0,0
15.11.2018 11:00:00 6,6 5,3 6,7 8,1 9,1 12,0 7 4 11 6 ESE 1028,1 19 0 0,0
15.11.2018 10:00:00 6,5 5,5 6,7 8,0 9,1 12,0 6 3 9 5 SSE 1028,2 15 0 0,0
15.11.2018 09:00:00 6,3 5,7 6,4 7,9 9,1 12,0 5 3 10 6 SE 1028,2 8 0 0,0
15.11.2018 08:00:00 6,4 5,6 6,4 7,9 9,1 12,1 6 3 10 6 SSE 1028,2 3,9 0 0,0
15.11.2018 07:00:00 6,7 5,7 6,7 7,9 9,2 12,1 3 2 10 5 E 1028,0 12 0 0,0
15.11.2018 06:00:00 6,7 5,8 6,8 8,0 9,2 12,1 4 2 8 4 N 1028,0 11 0 0,0
15.11.2018 05:00:00 6,7 5,7 6,8 8,0 9,2 12,1 5 3 9 5 N 1028,0 14 0 0,0
15.11.2018 04:00:00 6,7 5,9 6,8 8,0 9,2 12,1 3 2 12 6 N 1028,0 12 0 0,0
15.11.2018 03:00:00 6,8 6,0 6,8 8,1 9,3 12,1 5 3 10 6 NNE 1028,0 10 0 0,0
15.11.2018 02:00:00 6,9 6,0 6,8 8,2 9,3 12,1 6 3 12 6 NNE 1028,2 9 0 0,0
15.11.2018 01:00:00 7,1 6,1 7,1 8,2 9,3 12,1 5 3 9 5 NE 1028,2 12 0 0,0
15.11.2018 00:00:00 7,1 6,0 7,1 8,2 9,4 12,1 4 2 10 5 NNE 1028,5 10 0 0,0
14.11.2018 23:00:00 7,1 6,2 7,1 8,3 9,4 12,1 5 3 11 6 E 1028,9 11 0 0,0
14.11.2018 22:00:00 7,1 6,2 7,1 8,3 9,4 12,1 5 3 13 7 ENE 1029,1 9 0 0,0
14.11.2018 21:00:00 7,0 6,2 7,1 8,4 9,5 12,1 4 2 7 4 WNW 1029,2 7 0 0,0
14.11.2018 20:00:00 7,0 5,9 7,2 8,5 9,5 12,1 5 3 9 5 W 1029,2 8 0 0,0
14.11.2018 19:00:00 7,2 6,1 7,3 8,5 9,5 12,1 2 1 4 2 NW 1029,5 11 0 0,0
14.11.2018 18:00:00 7,1 5,9 6,9 8,6 9,5 12,1 2 1 6 3 ESE 1029,6 12 0 0,0
14.11.2018 17:00:00 7,1 5,8 6,9 8,8 9,5 12,1 4 2 8 4 S 1029,5 13 0 0,0
14.11.2018 16:00:00 7,2 5,7 7,2 9,0 9,4 12,1 3 2 6 4 SSE 1029,7 18 0 0,0
14.11.2018 15:00:00 7,1 5,4 7,2 9,0 9,4 12,2 2 1 8 5 ENE 1029,6 19 0 0,0
14.11.2018 14:00:00 7,0 5,4 7,2 8,9 9,3 12,2 5 3 13 7 NNE 1029,8 20 0 0,0
14.11.2018 13:00:00 6,8 5,5 6,9 8,7 9,2 12,2 4 2 9 5 NNW 1029,9 18 0 0,0
14.11.2018 12:00:00 6,4 5,2 6,8 8,4 9,2 12,2 4 2 11 6 NW 1030,5 19 0 0,0
14.11.2018 11:00:00 6,2 5,8 6,6 8,2 9,1 12,2 2 1 7 4 NW 1030,9 3,9 0 0,0
14.11.2018 10:00:00 5,7 4,9 6,1 7,9 9,1 12,2 3 2 14 7 E 1031,2 12 0 0,0
14.11.2018 09:00:00 5,6 5,1 5,8 7,8 9,2 12,2 10 5 15 8 NNE 1031,6 7 0 0,0
14.11.2018 08:00:00 5,8 5,7 6,1 7,7 9,2 12,2 6 3 14 7 NNE 1031,5 0,6 0 0,0
14.11.2018 07:00:00 6,0 5,8 6,2 7,9 9,2 12,2 8 4 13 7 N 1031,5 0,5 0 0,0
14.11.2018 06:00:00 6,2 6,1 6,4 8,0 9,2 12,2 8 5 15 8 NNE 1031,6 0,4 0 0,0
14.11.2018 05:00:00 6,6 6,4 6,7 8,1 9,2 12,2 5 3 11 6 NNE 1031,6 0,4 0 0,0
14.11.2018 04:00:00 7,0 6,7 7,1 8,1 9,2 12,2 6 3 12 6 N 1031,6 0,6 0 0,0
14.11.2018 03:00:00 7,5 7,2 7,5 8,1 9,2 12,2 6 3 10 5 N 1031,9 4,0 0 0,0
14.11.2018 02:00:00 7,6 7,3 7,6 8,0 9,2 12,2 4 2 5 3 NE 1032,0 4,3 0 0,0
14.11.2018 01:00:00 7,2 7,0 7,2 7,8 9,2 12,2 2 1 5 3 W 1032,7 5 0 0,0
14.11.2018 00:00:00 6,9 6,7 7,0 7,6 9,3 12,2 3 2 5 3 WSW 1033,0 0,4 0 0,0
13.11.2018 23:00:00 6,7 6,7 6,2 7,5 9,4 12,2 6 3 10 5 N 1033,1 0,5 0 0,0
13.11.2018 22:00:00 6,4 6,4 6,2 7,3 9,6 12,2 7 4 11 6 NNE 1033,1 0,1 0 0,0
13.11.2018 21:00:00 6,7 6,5 5,4 7,5 9,7 12,2 6 3 12 7 NNE 1033,1 0,2 0 0,0
13.11.2018 20:00:00 7,3 7,0 4,9 7,8 9,9 12,2 3 1 5 3 E 1032,8 11 0 0,0
13.11.2018 19:00:00 8,0 7,6 5,4 8,3 10,0 12,2 3 2 6 4 E 1032,7 27 0 0,0
13.11.2018 18:00:00 8,3 7,7 6,2 9,0 10,1 12,2 3 2 6 4 N 1032,3 54 0 0,0
13.11.2018 17:00:00 9,5 8,4 8,1 9,6 10,1 12,2 3 2 12 6 WSW 1031,4 53 0 0,0
13.11.2018 16:00:00 10,0 8,7 9,5 9,9 10,0 12,2 6 3 11 6 N 1031,1 70 0 0,1
13.11.2018 15:00:00 10,2 8,7 9,6 10,0 9,9 12,2 5 3 13 7 WNW 1030,3 31 0 0,3
13.11.2018 14:00:00 10,2 8,9 9,9 9,9 9,8 12,2 6 4 14 7 SSW 1030,0 51 0 0,1
13.11.2018 13:00:00 10,0 9,1 9,9 9,5 9,7 12,2 7 4 14 8 SSW 1030,1 22 0 0,6
13.11.2018 12:00:00 9,4 8,8 9,4 9,1 9,6 12,2 5 3 14 7 SSW 1030,4 8 0 0,1
13.11.2018 11:00:00 8,9 8,2 8,9 8,8 9,6 12,2 8 4 22 12 WNW 1030,4 16 0 0,0
13.11.2018 10:00:00 8,4 7,7 8,5 8,5 9,6 12,2 10 5 22 12 WNW 1029,1 15 0 0,0
13.11.2018 09:00:00 7,7 7,5 7,6 8,2 9,6 12,2 5 3 11 6 W 1027,5 5 0 0,0
13.11.2018 08:00:00 7,7 7,5 7,7 8,0 9,6 12,2 5 3 8 5 E 1026,5 5 0 0,0
13.11.2018 07:00:00 6,7 6,6 6,6 7,8 9,7 12,2 3 2 6 4 SE 1025,8 0,9 0 0,0
13.11.2018 06:00:00 6,2 6,1 5,9 7,8 9,8 12,2 4 2 9 5 W 1025,3 0,3 0 0,0
13.11.2018 05:00:00 6,4 6,4 6,3 7,9 9,9 12,2 8 4 14 7 WNW 1024,6 0,3 0 0,0
13.11.2018 04:00:00 6,3 6,2 6,3 8,0 10,0 12,2 10 5 15 8 WNW 1024,0 0,2 0 0,0
13.11.2018 03:00:00 6,5 6,5 6,4 8,1 10,2 12,2 9 5 14 8 WNW 1023,5 0,2 0 0,0
13.11.2018 02:00:00 6,6 6,6 6,6 8,2 10,3 12,2 11 6 15 8 WNW 1023,2 0,2 0 0,0
13.11.2018 01:00:00 6,9 6,8 6,6 8,4 10,5 12,2 8 4 14 8 WNW 1022,7 0,6 0 0,0
13.11.2018 00:00:00 7,3 7,3 7,1 8,6 10,7 12,2 9 5 15 8 WNW 1022,8 0,2 0 0,0
12.11.2018 23:00:00 8,0 7,8 6,3 8,7 10,9 12,2 5 3 8 4 N 1022,7 10 0 0,0
12.11.2018 22:00:00 8,1 7,7 5,7 9,1 11,1 12,2 4 2 6 3 W 1022,8 10 0 0,0
12.11.2018 21:00:00 8,5 8,0 6,2 9,5 11,3 12,2 2 1 9 5 NNE 1022,7 17 0 0,0
12.11.2018 20:00:00 9,5 8,7 7,4 10,0 11,6 12,2 6 3 8 4 NNE 1022,3 28 0 0,0
12.11.2018 19:00:00 9,8 8,7 7,6 10,6 11,8 12,2 4 2 6 4 WNW 1021,8 20 0 0,0
12.11.2018 18:00:00 10,6 8,9 8,0 11,4 11,9 12,2 4 2 6 3 W 1021,1 26 0 0,0
12.11.2018 17:00:00 12,2 8,5 10,2 12,6 11,9 12,2 4 2 6 3 NNE 1020,3 61 50 0,0
12.11.2018 16:00:00 13,9 7,6 12,9 14,0 11,6 12,2 4 2 11 6 W 1019,6 67 49 0,0
12.11.2018 15:00:00 15,3 8,3 16,0 14,5 11,3 12,2 4 2 14 7 WSW 1019,0 70 41 0,0
12.11.2018 14:00:00 15,6 7,1 16,2 14,9 10,8 12,2 5 3 10 5 SW 1018,4 56 54 0,0
12.11.2018 13:00:00 13,3 8,2 16,7 13,2 10,4 12,2 5 3 17 9 E 1018,8 42 33 0,0
12.11.2018 12:00:00 11,1 7,7 11,5 11,6 10,2 12,2 10 5 29 16 WNW 1019,2 33 45 0,0
12.11.2018 11:00:00 8,2 7,1 10,0 10,1 10,1 12,2 13 7 27 15 W 1019,6 10 21 0,1
12.11.2018 10:00:00 7,3 7,0 8,0 9,4 10,1 12,2 7 4 20 11 W 1018,4 0,9 0 0,0
12.11.2018 09:00:00 7,3 7,0 7,6 9,1 10,1 12,2 7 4 12 7 NNE 1018,2 0,3 0 0,0
12.11.2018 08:00:00 7,3 7,2 7,5 9,0 10,1 12,2 3 2 8 4 W 1018,2 0,3 0 0,0
12.11.2018 07:00:00 7,4 7,2 7,6 9,1 10,1 12,2 4 2 6 4 NNE 1018,0 0,2 0 0,0
12.11.2018 06:00:00 7,6 7,4 7,8 9,1 10,2 12,2 3 2 5 3 SW 1018,3 0,2 0 0,0
12.11.2018 05:00:00 7,8 7,8 8,0 9,1 10,2 12,2 3 2 7 4 SW 1018,3 0,2 0 0,0
12.11.2018 04:00:00 8,0 7,8 8,1 9,2 10,2 12,2 3 2 6 4 S 1018,1 0,2 0 0,0
12.11.2018 03:00:00 8,2 8,0 8,3 9,2 10,2 12,2 3 2 8 5 WSW 1018,4 0,3 0 0,0
12.11.2018 02:00:00 8,5 8,4 8,6 9,0 10,3 12,2 3 1 7 4 ENE 1018,5 0,3 0 0,0
12.11.2018 01:00:00 8,1 7,9 8,2 8,8 10,4 12,2 6 4 11 6 NW 1018,8 0,4 0 0,0
12.11.2018 00:00:00 8,6 8,5 8,2 8,5 10,6 12,2 7 4 11 6 ENE 1018,4 0,8 0 0,0
11.11.2018 23:00:00 8,3 8,0 6,5 8,8 10,8 12,2 3 1 5 3 SSW 1018,8 0,6 0 0,0
11.11.2018 22:00:00 8,8 8,4 7,0 9,2 11,0 12,2 0 0 15 8 N 1018,6 4,2 0 0,0
11.11.2018 21:00:00 9,8 9,2 8,7 9,6 11,2 12,2 10 5 14 8 NW 1017,8 9 0 0,0
11.11.2018 20:00:00 9,6 9,0 8,5 10,0 11,4 12,2 10 6 21 11 WNW 1017,0 9 0 0,0
11.11.2018 19:00:00 9,8 8,6 8,5 10,5 11,6 12,2 10 5 16 9 WNW 1016,2 15 0 0,0
11.11.2018 18:00:00 9,9 8,7 8,1 11,3 11,7 12,2 5 3 10 5 NNE 1015,4 15 0 0,0
11.11.2018 17:00:00 11,3 9,2 9,7 12,6 11,7 12,2 5 3 9 5 E 1014,9 20 45 0,0
11.11.2018 16:00:00 13,0 9,4 12,4 14,2 11,4 12,2 7 4 11 6 E 1015,2 27 60 0,0
11.11.2018 15:00:00 13,3 9,4 15,6 14,7 11,0 12,2 4 2 10 5 E 1015,2 24 60 0,0
11.11.2018 14:00:00 13,4 9,3 15,6 14,5 10,5 12,2 5 3 10 5 E 1014,9 18 60 0,0
11.11.2018 13:00:00 13,1 9,8 15,1 13,1 10,2 12,2 8 5 14 8 E 1014,6 12 44 0,0
11.11.2018 12:00:00 11,0 9,4 11,0 11,0 9,9 12,2 6 4 10 5 ENE 1015,6 9 6 0,0
11.11.2018 11:00:00 10,6 9,5 11,8 9,8 9,8 12,2 5 3 12 7 ESE 1015,6 4,6 6 0,5
11.11.2018 10:00:00 9,3 8,7 9,1 9,2 9,8 12,2 5 3 16 9 NW 1015,5 2,2 0 0,2
11.11.2018 09:00:00 8,8 8,4 8,8 8,9 9,8 12,2 9 5 16 8 NW 1015,1 3,0 0 0,2
11.11.2018 08:00:00 8,4 7,9 8,3 8,7 9,8 12,2 6 4 14 8 NW 1014,2 3,5 0 0,1
11.11.2018 07:00:00 8,5 8,0 8,1 8,7 9,8 12,2 4 2 9 5 E 1013,1 3,7 0 0,1
11.11.2018 06:00:00 8,4 8,1 8,2 8,6 9,8 12,2 5 3 12 7 E 1012,7 3,4 0 0,0
11.11.2018 05:00:00 8,5 7,8 8,2 8,5 9,9 12,2 9 5 20 11 SE 1012,4 5 0 0,0
11.11.2018 04:00:00 8,0 7,4 7,3 8,6 9,9 12,2 5 3 6 4 E 1013,2 4,5 0 0,0
11.11.2018 03:00:00 8,1 7,5 7,6 8,7 10,0 12,2 3 2 7 4 SSE 1013,2 5 0 0,4
11.11.2018 02:00:00 8,2 7,4 7,7 8,6 10,1 12,2 3 1 6 3 WNW 1012,6 4,8 0 0,0
11.11.2018 01:00:00 8,1 7,4 7,5 8,7 10,1 12,2 5 3 8 4 WSW 1012,2 5 0 0,0
11.11.2018 00:00:00 7,9 7,1 7,5 8,7 10,2 12,2 4 2 13 7 N 1011,8 4,6 0 0,0
10.11.2018 23:00:00 7,8 6,8 7,4 8,8 10,4 12,2 7 4 11 6 W 1012,0 6 0 0,0
10.11.2018 22:00:00 7,8 6,8 7,5 8,9 10,5 12,2 6 4 10 5 NW 1011,3 7 0 0,0
10.11.2018 21:00:00 8,3 7,2 7,6 9,2 10,6 12,2 3 2 7 4 SSE 1011,2 7 0 0,0
10.11.2018 20:00:00 8,1 7,1 7,5 9,3 10,7 12,2 2 1 5 3 S 1011,4 8 0 0,0
10.11.2018 19:00:00 8,0 7,0 7,5 9,4 10,9 12,2 2 1 5 3 S 1011,5 7 0 0,0
10.11.2018 18:00:00 7,7 6,7 6,3 9,8 11,0 12,2 3 1 6 4 S 1011,4 8 0 0,0
10.11.2018 17:00:00 8,1 6,7 6,8 10,6 11,0 12,2 4 2 7 4 SE 1011,1 9 2 0,0
10.11.2018 16:00:00 8,8 6,6 8,9 11,6 10,9 12,2 4 2 14 7 ESE 1010,8 11 24 0,0
10.11.2018 15:00:00 9,4 6,6 10,3 12,4 10,7 12,2 9 5 18 10 E 1010,6 11 54 0,0
10.11.2018 14:00:00 10,9 6,0 12,0 12,4 10,4 12,2 6 3 13 7 S 1010,6 13 34 0,0
10.11.2018 13:00:00 10,0 6,8 11,2 10,8 10,2 12,2 6 3 10 6 S 1011,3 12 0 0,0
10.11.2018 12:00:00 9,3 6,7 10,4 10,2 10,1 12,2 4 2 8 5 SSW 1011,7 9 0 0,0
10.11.2018 11:00:00 8,4 6,8 9,0 9,4 10,1 12,2 3 1 9 5 NW 1012,2 7 0 0,0
10.11.2018 10:00:00 7,6 6,5 8,0 9,1 10,1 12,2 5 3 11 6 NNW 1012,2 7 0 0,0
10.11.2018 09:00:00 7,5 6,5 7,8 9,0 10,1 12,2 5 3 12 6 NNE 1011,9 5 0 0,0
10.11.2018 08:00:00 7,8 6,9 7,9 9,0 10,1 12,2 5 3 10 5 NNE 1011,7 3,7 0 0,0
10.11.2018 07:00:00 7,9 6,9 8,0 9,0 10,2 12,2 4 2 6 4 ENE 1011,9 4,3 0 0,0
10.11.2018 06:00:00 8,0 7,0 8,0 9,1 10,2 12,2 5 3 9 5 NE 1012,2 4,4 0 0,0
10.11.2018 05:00:00 8,2 7,0 8,2 9,1 10,2 12,2 4 2 9 5 NNE 1012,5 4,8 0 0,0
10.11.2018 04:00:00 8,3 7,2 8,3 9,1 10,2 12,2 5 3 10 6 N 1012,8 4,8 0 0,0
10.11.2018 03:00:00 8,6 7,3 8,5 9,1 10,3 12,2 4 2 8 4 NNE 1013,2 5 0 0,0
10.11.2018 02:00:00 8,5 7,1 8,3 9,0 10,3 12,2 5 3 8 5 N 1013,5 6 0 0,0
10.11.2018 01:00:00 8,3 7,3 8,0 8,9 10,4 12,2 4 2 11 6 NNE 1013,9 5 0 0,0
10.11.2018 00:00:00 8,3 7,4 7,9 8,7 10,5 12,2 7 4 11 6 NE 1014,2 5 0 0,0
09.11.2018 23:00:00 7,7 7,1 7,2 8,3 10,7 12,2 6 4 10 5 N 1014,7 4,1 0 0,0
09.11.2018 22:00:00 7,3 6,5 5,1 8,6 11,0 12,2 3 2 8 4 WNW 1015,2 5 0 0,0

tt = Température de l'air
td = dewpoint
tt 5cm = Température de l'air 5cm
tt -5cm = Température de l'air -5cm
tt -20cm = Température de l'air -20cm
tt -100cm = Température de l'air -100cm
ff = Vitesse du vent
fx = gusts
dd = Direction du vent
ppp = reduced air pressure
vv = visibility
sd = Ensoleillement
rr = Quantités de précipitations

stations d'obs. à proximité